This is the latest recevied weather packets stored in our database for station/object KC5AV. If no packets are shown the sender has not sent any weather packets the latest 10 day(s).
| Time | Temp. | Humidity | Pressure | Rain* | Wind** | Luminosity | Snow |
|---|---|---|---|---|---|---|---|
| 1787498240 | 33.89° C | 53% | 1017.8 hPa | 0 mm | - | 582 W/m² | - |
| 1787497936 | 33.33° C | 53% | 1017.8 hPa | 0 mm | - | 554 W/m² | - |
| 1787497631 | 33.33° C | 55% | 1017.9 hPa | 0 mm | - | 514 W/m² | - |
| 1787497327 | 32.78° C | 56% | 1017.9 hPa | 0 mm | - | 514 W/m² | - |
| 1787497026 | 32.78° C | 57% | 1018 hPa | 0 mm | - | 497 W/m² | - |
| 1787496726 | 32.22° C | 58% | 1018 hPa | 0 mm | - | 501 W/m² | - |
| 1787496420 | 31.67° C | 61% | 1018.3 hPa | 0 mm | - | 330 W/m² | - |
| 1787496115 | 31.67° C | 60% | 1018.1 hPa | 0 mm | - | 409 W/m² | - |
| 1787495810 | 31.67° C | 60% | 1018.1 hPa | 0 mm | - | 436 W/m² | - |
| 1787495506 | 31.11° C | 61% | 1018 hPa | 0 mm | - | 446 W/m² | - |
| 1787495202 | 31.11° C | 64% | 1018.2 hPa | 0 mm | - | 405 W/m² | - |
| 1787494897 | 30.56° C | 64% | 1018.3 hPa | 0 mm | - | 386 W/m² | - |
| 1787494593 | 28.89° C | 72% | 1018.1 hPa | 0 mm | - | 394 W/m² | - |
| 1787494292 | 28.33° C | 70% | 1018.1 hPa | 0 mm | - | 126 W/m² | - |
| 1787493989 | 28.33° C | 71% | 1018.3 hPa | 0 mm | - | 139 W/m² | - |
| 1787493686 | 28.33° C | 70% | 1018.6 hPa | 0 mm | - | 144 W/m² | - |
| 1787493384 | 28.33° C | 72% | 1018.3 hPa | 0 mm | - | 167 W/m² | - |
| 1787493081 | 27.78° C | 73% | 1018.2 hPa | 0 mm | - | 173 W/m² | - |
| 1787492776 | 27.78° C | 77% | 1018.4 hPa | 0 mm | - | 155 W/m² | - |
| 1787492472 | 27.78° C | 78% | 1018.3 hPa | 0 mm | - | 135 W/m² | - |
| 1787492167 | 27.22° C | 77% | 1018.1 hPa | 0 mm | - | 124 W/m² | - |
| 1787491862 | 27.22° C | 77% | 1018.1 hPa | 0 mm | - | 118 W/m² | - |
| 1787491557 | 26.67° C | 80% | 1018.2 hPa | 0 mm | - | 123 W/m² | - |
| 1787491253 | 26.67° C | 82% | 1017.7 hPa | 0 mm | - | 115 W/m² | - |
| 1787490948 | 26.67° C | 84% | 1017.9 hPa | 0 mm | - | 94 W/m² | - |
* Rain latest hour (hover to see other rain measurements)
** Current wind speed in m/s (hover to see current wind gust speed)